Date String (YYYY-MM-DD hh:mm:ss) UTC,Instrument flags,Ambient pressure (hPa),Sample flow (lpm),Bypass flow (lpm),Sample temperature (°C),Ambient temperature (°C),ASC tube jacket temperature (°C),LED temperature (°C),Box temperature (°C),Sample RH (%),Span deviation,Mass concentration (μg/m³),Mass concentration (μg/m³),Mass concentration (μg/m³)
DateTimeUTC,F1_M11,P_M11,Q1_M11,Q2_M11,T1_M11,T2_M11,T3_M11,T4_M11,T5_M11,U1_M11,ZSPAN_M11,X0_M11,X2_M11,X1_M11
2023-05-13 05:00:00,,0834.3,5.00,0.00,27.3,25.7,00.0,35.8,29.0,24.6,0000.0,0002.30,0001.35,0001.10
2023-05-13 05:01:00,,0834.3,5.00,0.00,27.3,25.6,00.0,35.8,29.0,24.5,0000.0,0002.00,0001.34,0001.09
2023-05-13 05:02:00,,0834.3,5.00,0.00,27.3,25.6,00.0,35.8,28.9,24.5,0000.0,0002.08,0001.40,0001.10
2023-05-13 05:03:00,,0834.4,5.00,0.00,27.3,25.6,00.0,35.8,28.9,24.6,0000.0,0002.18,0001.44,0001.11
2023-05-13 05:04:00,,0834.4,5.00,0.00,27.3,25.6,00.0,35.8,28.9,24.7,0000.0,0002.24,0001.45,0001.11
2023-05-13 05:05:00,,0834.4,5.00,0.00,27.3,25.6,00.0,35.8,28.9,24.6,0000.0,0002.87,0001.49,0001.10
2023-05-13 05:06:00,,0834.5,5.00,0.00,27.3,25.5,00.0,35.8,28.8,24.8,0000.0,0002.80,0001.45,0001.07
2023-05-13 05:07:00,,0834.5,5.00,0.00,27.3,25.5,00.0,35.7,28.8,24.9,0000.0,0002.78,0001.41,0001.06
2023-05-13 05:08:00,,0834.5,4.99,0.00,27.2,25.4,00.0,35.7,28.8,25.0,0000.0,0002.80,0001.39,0001.02
2023-05-13 05:09:00,,0834.4,5.00,0.00,27.2,25.4,00.0,35.7,28.8,25.2,0000.0,0003.09,0001.34,0000.98
2023-05-13 05:10:00,,0834.4,5.00,0.00,27.2,25.3,00.0,35.7,28.7,25.3,0000.0,0003.91,0001.26,0000.94
2023-05-13 05:11:00,,0834.4,5.00,0.00,27.2,25.3,00.0,35.7,28.7,25.2,0000.0,0003.90,0001.24,0000.91
2023-05-13 05:12:00,,0834.5,5.00,0.00,27.2,25.3,00.0,35.7,28.7,25.3,0000.0,0003.96,0001.24,0000.88
2023-05-13 05:13:00,,0834.5,4.99,0.00,27.1,25.2,00.0,35.7,28.7,25.3,0000.0,0003.80,0001.15,0000.84
2023-05-13 05:14:00,,0834.5,5.01,0.00,27.1,25.2,00.0,35.6,28.6,25.4,0000.0,0003.64,0001.07,0000.80
2023-05-13 05:15:00,,0834.5,5.00,0.00,27.1,25.2,00.0,35.6,28.6,25.4,0000.0,0003.51,0001.03,0000.77
2023-05-13 05:16:00,,0834.5,5.00,0.00,27.1,25.2,00.0,35.6,28.6,25.3,0000.0,0002.87,0000.97,0000.75
2023-05-13 05:17:00,,0834.5,5.00,0.00,27.1,25.2,00.0,35.6,28.6,25.2,0000.0,0003.30,0001.00,0000.75
2023-05-13 05:18:00,,0834.5,5.00,0.00,27.1,25.2,00.0,35.6,28.6,25.1,0000.0,0003.51,0001.01,0000.75
2023-05-13 05:19:00,,0834.5,5.00,0.00,27.0,25.1,00.0,35.6,28.6,25.0,0000.0,0003.71,0001.05,0000.76
2023-05-13 05:20:00,,0834.5,5.00,0.00,27.0,25.1,00.0,35.6,28.5,25.0,0000.0,0003.41,0001.10,0000.78
2023-05-13 05:21:00,,0834.5,4.99,0.00,27.0,25.0,00.0,35.5,28.5,24.9,0000.0,0002.57,0001.14,0000.81
2023-05-13 05:22:00,,0834.5,5.02,0.00,26.9,25.0,00.0,35.5,28.4,25.0,0000.0,0002.86,0001.18,0000.83
2023-05-13 05:23:00,,0834.5,5.01,0.00,26.9,24.9,00.0,35.5,28.4,25.1,0000.0,0003.22,0001.20,0000.85
2023-05-13 05:24:00,,0834.5,5.00,0.00,26.9,24.9,00.0,35.5,28.4,25.1,0000.0,0003.70,0001.24,0000.88
2023-05-13 05:25:00,,0834.5,4.99,0.00,26.9,24.9,00.0,35.5,28.4,25.1,0000.0,0005.02,0001.28,0000.90
2023-05-13 05:26:00,,0834.5,4.99,0.00,26.8,24.9,00.0,35.4,28.3,25.1,0000.0,0005.08,0001.31,0000.92
2023-05-13 05:27:00,,0834.6,5.00,0.00,26.8,24.8,00.0,35.4,28.3,25.1,0000.0,0005.06,0001.32,0000.93
2023-05-13 05:28:00,,0834.5,5.01,0.00,26.8,24.8,00.0,35.4,28.2,25.1,0000.0,0004.76,0001.30,0000.93
2023-05-13 05:29:00,,0834.5,5.01,0.00,26.7,24.8,00.0,35.4,28.2,25.2,0000.0,0004.34,0001.27,0000.93
2023-05-13 05:30:00,,0834.5,4.99,0.00,26.7,24.7,00.0,35.3,28.2,25.3,0000.0,0004.18,0001.26,0000.92
2023-05-13 05:31:00,,0834.5,4.99,0.00,26.7,24.7,00.0,35.3,28.2,25.2,0000.0,0004.19,0001.27,0000.92
2023-05-13 05:32:00,,0834.4,5.01,0.00,26.6,24.6,00.0,35.3,28.1,25.2,0000.0,0004.26,0001.29,0000.92
2023-05-13 05:33:00,,0834.4,5.01,0.00,26.6,24.6,00.0,35.3,28.1,25.2,0000.0,0004.12,0001.29,0000.92
2023-05-13 05:34:00,,0834.4,5.01,0.00,26.6,24.5,00.0,35.2,28.1,25.2,0000.0,0003.76,0001.27,0000.92
2023-05-13 05:35:00,,0834.3,5.00,0.00,26.5,24.5,00.0,35.2,28.0,25.2,0000.0,0003.62,0001.27,0000.92
2023-05-13 05:36:00,,0834.4,4.99,0.00,26.5,24.4,00.0,35.2,28.0,25.3,0000.0,0003.54,0001.26,0000.92
2023-05-13 05:37:00,,0834.5,4.99,0.00,26.5,24.4,00.0,35.2,28.0,25.3,0000.0,0003.95,0001.25,0000.92
2023-05-13 05:38:00,,0834.6,5.00,0.00,26.5,24.3,00.0,35.1,27.9,25.3,0000.0,0004.00,0001.26,0000.94
2023-05-13 05:39:00,,0834.8,5.00,0.00,26.4,24.3,00.0,35.1,27.9,25.3,0000.0,0004.11,0001.28,0000.95
2023-05-13 05:40:00,,0834.5,5.00,0.00,26.4,24.4,00.0,35.1,27.9,25.4,0000.0,0004.17,0001.31,0000.95
2023-05-13 05:41:00,,0834.7,5.01,0.00,26.4,24.4,00.0,35.0,27.9,25.3,0000.0,0004.25,0001.33,0000.96
2023-05-13 05:42:00,,0834.5,5.00,0.00,26.4,24.3,00.0,35.0,27.9,25.3,0000.0,0004.42,0001.36,0000.96
2023-05-13 05:43:00,,0834.4,5.01,0.00,26.4,24.3,00.0,35.0,27.9,25.3,0000.0,0004.40,0001.35,0000.95
2023-05-13 05:44:00,,0834.5,5.01,0.00,26.3,24.3,00.0,35.0,27.9,25.3,0000.0,0004.29,0001.34,0000.95
2023-05-13 05:45:00,,0834.5,5.00,0.00,26.3,24.3,00.0,35.0,27.9,25.2,0000.0,0004.32,0001.35,0000.95
2023-05-13 05:46:00,,0834.3,4.99,0.00,26.3,24.3,00.0,34.9,27.9,25.2,0000.0,0004.67,0001.32,0000.94
2023-05-13 05:47:00,,0834.5,5.00,0.00,26.3,24.3,00.0,34.9,27.8,25.3,0000.0,0003.50,0001.33,0000.93
2023-05-13 05:48:00,,0834.2,5.00,0.00,26.3,24.2,00.0,34.9,27.8,25.3,0000.0,0003.01,0001.33,0000.91
2023-05-13 05:49:00,,0834.5,5.00,0.00,26.3,24.2,00.0,34.9,27.8,25.3,0000.0,0003.08,0001.35,0000.90
2023-05-13 05:50:00,,0834.6,5.00,0.00,26.3,24.2,00.0,34.8,27.8,25.3,0000.0,0003.74,0001.34,0000.88
2023-05-13 05:51:00,,0834.2,5.00,0.00,26.2,24.2,00.0,34.8,27.8,25.2,0000.0,0004.15,0001.31,0000.86
2023-05-13 05:52:00,,0834.2,5.00,0.00,26.2,24.2,00.0,34.8,27.8,25.2,0000.0,0004.11,0001.28,0000.85
2023-05-13 05:53:00,,0834.2,5.00,0.00,26.2,24.1,00.0,34.8,27.7,25.1,0000.0,0004.50,0001.23,0000.84
2023-05-13 05:54:00,,0834.2,5.00,0.00,26.2,24.1,00.0,34.8,27.7,25.0,0000.0,0004.75,0001.24,0000.84
2023-05-13 05:55:00,,0834.2,4.99,0.00,26.2,24.1,00.0,34.8,27.7,24.9,0000.0,0004.80,0001.25,0000.85
2023-05-13 05:56:00,,0834.2,5.00,0.00,26.2,24.1,00.0,34.7,27.7,24.9,0000.0,0004.90,0001.25,0000.85
2023-05-13 05:57:00,,0834.2,5.00,0.00,26.1,24.1,00.0,34.7,27.7,24.8,0000.0,0005.22,0001.33,0000.85
2023-05-13 05:58:00,,0834.2,5.00,0.00,26.1,24.1,00.0,34.7,27.6,24.8,0000.0,0005.43,0001.39,0000.87
2023-05-13 05:59:00,,0834.2,5.00,0.00,26.1,24.1,00.0,34.7,27.6,24.8,0000.0,0005.57,0001.44,0000.90
